This is the latest recevied weather packets stored in our database for station/object LRTM. If no packets are shown the sender has not sent any weather packets the latest 10 day(s).
| Time | Temp. | Humidity | Pressure | Rain* | Wind** | Luminosity | Snow |
|---|---|---|---|---|---|---|---|
| 1777551503 | 12.22° C | 38% | 1023 hPa | - | - | - | - |
| 1777550606 | 12.22° C | 38% | 1023 hPa | - | - | - | - |
| 1777549706 | 12.22° C | 35% | 1023 hPa | - | - | - | - |
| 1777548806 | 12.22° C | 35% | 1023 hPa | - | - | - | - |
| 1777547900 | 12.78° C | 38% | 1023 hPa | - | - | - | - |
| 1777547007 | 12.78° C | 38% | 1023 hPa | - | - | - | - |
| 1777546106 | 12.22° C | 38% | 1024 hPa | - | - | - | - |
| 1777545208 | 12.22° C | 38% | 1024 hPa | - | - | - | - |
| 1777544329 | 11.11° C | 44% | 1024 hPa | - | - | - | - |
| 1777543403 | 11.11° C | 44% | 1024 hPa | - | - | - | - |
| 1777542507 | 10° C | 47% | 1024 hPa | - | - | - | - |
| 1777541606 | 10° C | 47% | 1024 hPa | - | - | - | - |
| 1777540703 | 10° C | 43% | 1024 hPa | - | - | - | - |
| 1777539806 | 10° C | 43% | 1024 hPa | - | - | - | - |
| 1777538934 | 10° C | 47% | 1024 hPa | - | - | - | - |
| 1777538006 | 10° C | 47% | 1024 hPa | - | - | - | - |
| 1777537115 | 8.89° C | 50% | 1024 hPa | - | - | - | - |
| 1777536207 | 8.89° C | 50% | 1024 hPa | - | - | - | - |
| 1777535304 | 7.78° C | 53% | 1024 hPa | - | - | - | - |
| 1777534406 | 7.78° C | 53% | 1024 hPa | - | - | - | - |
| 1777533503 | 7.78° C | 53% | 1024 hPa | - | - | - | - |
| 1777532606 | 7.78° C | 53% | 1024 hPa | - | - | - | - |
| 1777531706 | 7.78° C | 57% | 1024 hPa | - | - | - | - |
| 1777530806 | 7.78° C | 57% | 1024 hPa | - | - | - | - |
| 1777529907 | 7.78° C | 62% | 1024 hPa | - | - | - | - |
* Rain since midnight (hover to see other rain measurements)
** Current wind speed in m/s (hover to see current wind gust speed)